KF6RAL-6 Weather Reports


Display with metric or nautical units.
time (UTC)temp
F
wind
direction
speed
MPH
gust
MPH
rain 1hr
in
rain 24hr
in
rain mn
in
humidity
%
barometer
mb
20180221222505 0 0 0.0 0.0 0.00 0.00 0.00 1017.7
20180221221103 0 0 0.0 0.0 0.00 0.00 0.00 1017.6
20180221220403 0 0 0.0 0.0 0.00 0.00 0.00 1017.6
20180221215702 0 0 0.0 0.0 0.00 0.00 0.00 1017.5
20180221215000 0 0 0.0 0.0 0.00 0.00 0.00 1017.5
20180221214259 0 0 0.0 0.0 0.00 0.00 0.00 1017.6
20180221213558 0 0 0.0 0.0 0.00 0.00 0.00 1017.6
20180221212856 0 0 0.0 0.0 0.00 0.00 0.00 1017.6
20180221212155 0 0 0.0 0.0 0.00 0.00 0.00 1017.6
20180221211455 0 0 0.0 0.0 0.00 0.00 0.00 1017.7
20180221210754 0 0 0.0 0.0 0.00 0.00 0.00 1017.7
20180221210053 0 0 0.0 0.0 0.00 0.00 0.00 1017.8
20180221205352 0 0 0.0 0.0 0.00 0.00 0.00 1017.9
20180221204651 0 0 0.0 0.0 0.00 0.00 0.00 1018.0
20180221203950 0 0 0.0 0.0 0.00 0.00 0.00 1018.1
20180221203248 0 0 0.0 0.0 0.00 0.00 0.00 1018.1
20180221202548 0 0 0.0 0.0 0.00 0.00 0.00 1018.1
20180221201847 0 0 0.0 0.0 0.00 0.00 0.00 1018.1
20180221201147 0 0 0.0 0.0 0.00 0.00 0.00 1018.2
20180221200445 0 0 0.0 0.0 0.00 0.00 0.00 1018.2
20180221195743 0 0 0.0 0.0 0.00 0.00 0.00 1018.4
20180221195043 0 0 0.0 0.0 0.00 0.00 0.00 1018.7
20180221194341 0 0 0.0 0.0 0.00 0.00 0.00 1018.7
20180221193640 0 0 0.0 0.0 0.00 0.00 0.00 1018.8
20180221192939 0 0 0.0 0.0 0.00 0.00 0.00 1018.9
20180221192238 0 0 0.0 0.0 0.00 0.00 0.00 1018.9
20180221191537 0 0 0.0 0.0 0.00 0.00 0.00 1019.1
20180221190837 0 0 0.0 3.0 0.00 0.00 0.00 1019.1
20180221190136 0 0 0.0 0.0 0.00 0.00 0.00 1019.0
20180221185434 0 0 0.0 0.0 0.00 0.00 0.00 1019.1
20180221184733 0 0 0.0 0.0 0.00 0.00 0.00 1019.2
20180221184032 0 0 0.0 0.0 0.00 0.00 0.00 1019.1
20180221183331 0 0 0.0 0.0 0.00 0.00 0.00 1019.3
20180221182633 0 0 0.0 0.0 0.00 0.00 0.00 1019.3
20180221181929 0 0 0.0 0.0 0.00 0.00 0.00 1019.4
20180221181228 0 0 0.0 0.0 0.00 0.00 0.00 1019.4
20180221180527 0 0 0.0 0.0 0.00 0.00 0.00 1019.4
20180221175826 0 0 0.0 0.0 0.00 0.00 0.00 1019.5
20180221175125 0 0 0.0 0.0 0.00 0.00 0.00 1019.5
20180221174424 0 0 0.0 0.0 0.00 0.00 0.00 1019.6
20180221173723 0 0 0.0 0.0 0.00 0.00 0.00 1019.6
20180221173022 0 0 0.0 0.0 0.00 0.00 0.00 1019.7
20180221172321 0 0 0.0 0.0 0.00 0.00 0.00 1019.7
20180221171620 0 0 0.0 0.0 0.00 0.00 0.00 1019.7
20180221170919 0 0 0.0 0.0 0.00 0.00 0.00 1019.7
20180221170218 0 0 0.0 0.0 0.00 0.00 0.00 1019.7
20180221165517 0 0 0.0 0.0 0.00 0.00 0.00 1019.7
20180221164816 0 0 0.0 0.0 0.00 0.00 0.00 1019.7
20180221164117 0 0 0.0 0.0 0.00 0.00 0.00 1019.7
20180221163414 0 0 0.0 0.0 0.00 0.01 0.00 1019.6
20180221162713 0 0 0.0 0.0 0.00 0.01 0.00 1019.6
20180221161310 0 0 0.0 0.0 0.00 0.01 0.00 1019.5
20180221160610 0 0 0.0 0.0 0.00 0.01 0.00 1019.6
20180221155909 0 0 0.0 0.0 0.00 0.01 0.00 1019.6
20180221155207 0 0 0.0 0.0 0.00 0.01 0.00 1019.5
20180221154506 0 0 0.0 0.0 0.00 0.01 0.00 1019.4
20180221153805 0 0 0.0 0.0 0.00 0.01 0.00 1019.3
20180221152404 0 0 0.0 0.0 0.00 0.01 0.00 1019.2
20180221151702 0 0 0.0 0.0 0.00 0.01 0.00 1019.2
20180221151001 0 0 0.0 0.0 0.00 0.01 0.00 1019.2
20180221150300 0 0 0.0 0.0 0.00 0.01 0.00 1019.2
20180221145559 0 0 0.0 0.0 0.00 0.01 0.00 1019.1
20180221144900 0 0 0.0 0.0 0.00 0.01 0.00 1019.1
20180221144235 0 0 0.0 0.0 0.00 0.01 0.00 1019.1
20180221143456 0 0 0.0 4.0 0.00 0.01 0.00 1019.0
20180221142755 0 0 0.0 5.0 0.00 0.01 0.00 1018.9
20180221142054 0 0 0.0 5.0 0.00 0.01 0.00 1018.9
20180221141353 0 0 0.0 5.0 0.00 0.01 0.00 1018.7
20180221140652 0 274 1.0 5.0 0.00 0.01 0.00 1018.7
20180221135953 0 266 2.0 4.0 0.00 0.01 0.00 1018.6
20180221135251 0 0 0.0 5.0 0.00 0.01 0.00 1018.7
20180221134550 0 242 2.0 10.0 0.00 0.01 0.00 1018.6
20180221133848 0 240 3.0 9.0 0.00 0.01 0.00 1018.6
20180221133147 0 217 2.0 3.0 0.00 0.01 0.00 1018.5
20180221132446 0 0 0.0 4.0 0.00 0.01 0.00 1018.5
20180221131745 0 239 2.0 5.0 0.00 0.01 0.00 1018.5
20180221131044 0 231 1.0 3.0 0.00 0.01 0.00 1018.6
20180221130009 0 215 1.0 2.0 0.00 0.01 0.00 1018.6
20180221125642 0 215 1.0 2.0 0.00 0.01 0.00 1018.6
20180221124941 0 0 0.0 0.0 0.00 0.01 0.00 1018.4
20180221124240 0 0 0.0 0.0 0.00 0.01 0.00 1018.4
20180221123540 0 0 0.0 2.0 0.00 0.01 0.00 1018.4
20180221122839 0 0 0.0 2.0 0.00 0.01 0.00 1018.4
20180221122137 0 0 0.0 2.0 0.00 0.01 0.00 1018.3
20180221121436 0 0 0.0 0.0 0.00 0.01 0.00 1018.4
20180221120735 0 0 0.0 2.0 0.00 0.01 0.00 1018.5
20180221115333 0 176 1.0 3.0 0.00 0.01 0.00 1018.6
20180221114633 0 0 0.0 0.0 0.00 0.01 0.00 1018.8
20180221113230 0 0 0.0 0.0 0.00 0.01 0.00 1018.9
20180221112529 0 0 0.0 0.0 0.00 0.01 0.00 1018.8
20180221111828 0 0 0.0 0.0 0.00 0.01 0.00 1018.8
20180221111127 0 0 0.0 3.0 0.00 0.01 0.00 1018.6
20180221110431 0 0 0.0 3.0 0.00 0.01 0.00 1018.7
20180221105725 0 0 0.0 2.0 0.00 0.01 0.00 1018.6
20180221105024 0 0 0.0 0.0 0.00 0.01 0.00 1018.7
20180221104440 0 0 0.0 0.0 0.00 0.01 0.00 1018.7
20180221104323 0 0 0.0 0.0 0.00 0.01 0.00 1018.7
20180221103622 0 0 0.0 0.0 0.00 0.01 0.00 1018.7
20180221102921 0 0 0.0 0.0 0.00 0.01 0.00 1018.8
20180221101519 0 0 0.0 0.0 0.00 0.03 0.00 1018.8
20180221100820 0 0 0.0 0.0 0.00 0.03 0.00 1018.8
20180221095416 0 0 0.0 0.0 0.00 0.03 0.00 1018.9
20180221094715 0 0 0.0 0.0 0.00 0.03 0.00 1019.1
20180221094014 0 0 0.0 0.0 0.00 0.03 0.00 1019.1
20180221093313 0 0 0.0 0.0 0.00 0.03 0.00 1019.2
20180221092612 0 0 0.0 0.0 0.00 0.03 0.00 1019.2
20180221091913 0 0 0.0 0.0 0.00 0.03 0.00 1019.1
20180221091210 0 0 0.0 0.0 0.00 0.03 0.00 1019.2
20180221090509 0 0 0.0 0.0 0.00 0.04 0.00 1019.3
20180221085808 0 0 0.0 0.0 0.00 0.04 0.00 1019.3
20180221085107 0 0 0.0 0.0 0.00 0.04 0.00 1019.3
20180221084407 0 0 0.0 0.0 0.00 0.04 0.00 1019.3
20180221083705 0 0 0.0 2.0 0.00 0.04 0.00 1019.3
20180221083004 0 0 0.0 0.0 0.00 0.04 0.00 1019.4
20180221082437 0 0 0.0 3.0 0.00 0.04 0.00 1019.4
20180221082303 0 0 0.0 3.0 0.00 0.04 0.00 1019.4
20180221081603 0 0 0.0 3.0 0.00 0.04 0.00 1019.4
20180221080901 0 0 0.0 3.0 0.00 0.04 0.00 1019.5
20180221080200 0 0 0.0 0.0 0.00 0.04 0.00 1019.5
20180221075459 0 0 0.0 0.0 0.00 0.04 0.00 1019.6
20180221074758 0 0 0.0 0.0 0.00 0.04 0.00 1019.7
20180221074057 0 0 0.0 0.0 0.00 0.04 0.04 1019.7
20180221073356 0 0 0.0 0.0 0.00 0.04 0.04 1019.7
20180221072656 0 0 0.0 4.0 0.00 0.04 0.04 1019.8
20180221071956 0 244 2.0 6.0 0.00 0.05 0.04 1019.8
20180221071253 0 238 2.0 6.0 0.00 0.05 0.04 1019.8
20180221070552 0 0 0.0 0.0 0.00 0.05 0.04 1019.6
20180221065851 0 0 0.0 0.0 0.00 0.05 0.04 1019.6
20180221065150 0 0 0.0 0.0 0.00 0.05 0.04 1019.6
20180221064449 0 0 0.0 0.0 0.00 0.05 0.04 1019.6
20180221063748 0 0 0.0 0.0 0.00 0.05 0.04 1019.6
20180221063047 0 0 0.0 0.0 0.00 0.06 0.04 1019.6
20180221062346 0 0 0.0 0.0 0.00 0.06 0.04 1019.7
20180221061645 0 0 0.0 0.0 0.00 0.06 0.04 1019.6
20180221060944 0 0 0.0 0.0 0.00 0.06 0.04 1019.6
20180221060243 0 0 0.0 4.0 0.00 0.06 0.04 1019.6
20180221055542 0 4 2.0 4.0 0.00 0.06 0.04 1019.5
20180221054841 0 0 0.0 3.0 0.00 0.06 0.04 1019.6
20180221054140 0 0 0.0 0.0 0.00 0.06 0.04 1019.6
20180221053439 0 0 0.0 3.0 0.00 0.06 0.04 1019.4
20180221052738 0 0 0.0 5.0 0.00 0.06 0.04 1019.4
20180221052037 0 4 1.0 5.0 0.00 0.06 0.04 1019.5
20180221051336 0 0 0.0 0.0 0.00 0.06 0.04 1019.5
20180221050634 0 0 0.0 0.0 0.00 0.06 0.04 1019.3
20180221045934 0 0 0.0 0.0 0.00 0.06 0.04 1019.4
20180221045232 0 0 0.0 0.0 0.00 0.06 0.04 1019.4
20180221044531 0 0 0.0 0.0 0.00 0.06 0.04 1019.4
20180221044254 0 0 0.0 0.0 0.00 0.06 0.04 1019.5
20180221043830 0 0 0.0 0.0 0.00 0.06 0.04 1019.5
20180221043129 0 0 0.0 0.0 0.00 0.06 0.04 1019.3
20180221042428 0 0 0.0 0.0 0.00 0.06 0.04 1019.3
20180221041728 0 0 0.0 0.0 0.00 0.06 0.04 1019.3
20180221041026 0 0 0.0 0.0 0.00 0.06 0.04 1019.3
20180221040325 0 0 0.0 0.0 0.00 0.07 0.04 1019.1
20180221035624 0 0 0.0 0.0 0.00 0.08 0.04 1019.1
20180221034923 0 0 0.0 0.0 0.00 0.08 0.04 1019.1
20180221033522 0 0 0.0 0.0 0.00 0.08 0.04 1018.9
20180221032821 0 0 0.0 0.0 0.00 0.08 0.04 1018.9
20180221032121 0 0 0.0 0.0 0.00 0.08 0.04 1018.9
20180221031419 0 0 0.0 0.0 0.00 0.08 0.04 1018.9
20180221030718 0 0 0.0 0.0 0.00 0.08 0.04 1018.9
20180221030016 0 0 0.0 0.0 0.00 0.08 0.04 1018.9
20180221025315 0 0 0.0 0.0 0.00 0.08 0.04 1018.9
20180221024615 0 0 0.0 0.0 0.00 0.08 0.04 1018.9
20180221023915 0 0 0.0 0.0 0.00 0.08 0.04 1018.8
20180221023214 0 0 0.0 0.0 0.00 0.08 0.04 1018.9
20180221022513 0 0 0.0 0.0 0.00 0.08 0.04 1018.9
20180221021811 0 0 0.0 6.0 0.00 0.08 0.04 1018.8
20180221021112 0 0 0.0 0.0 0.00 0.08 0.04 1018.8
20180221020409 0 0 0.0 0.0 0.00 0.08 0.04 1018.9
20180221015942 0 0 0.0 0.0 0.00 0.08 0.04 1018.8
20180221015709 0 0 0.0 0.0 0.00 0.08 0.04 1018.8
20180221014305 0 8 5.0 11.0 0.00 0.08 0.04 1018.7
20180221013644 0 8 7.0 11.0 0.00 0.08 0.04 1018.6
20180221013604 0 8 7.0 11.0 0.00 0.08 0.04 1018.6
20180221012904 0 4 6.0 10.0 0.00 0.08 0.04 1018.6
20180221012202 0 5 4.0 9.0 0.00 0.08 0.04 1018.7
20180221011503 0 5 4.0 7.0 0.00 0.08 0.04 1018.6
20180221010802 0 5 3.0 7.0 0.00 0.08 0.04 1018.6
20180221010100 0 5 2.0 5.0 0.00 0.08 0.04 1018.6
20180221005359 0 0 0.0 6.0 0.00 0.08 0.04 1018.6
20180221004658 0 5 2.0 5.0 0.00 0.08 0.04 1018.5
20180221003957 0 5 1.0 5.0 0.00 0.08 0.04 1018.5
20180221003256 0 5 1.0 4.0 0.00 0.08 0.04 1018.4
20180221002556 0 4 1.0 6.0 0.00 0.08 0.04 1018.6
20180221001855 0 5 1.0 6.0 0.00 0.08 0.04 1018.6
20180221001153 0 0 0.0 6.0 0.00 0.08 0.04 1018.5
20180221000452 0 5 1.0 6.0 0.00 0.08 0.04 1018.6
20180220235752 0 5 1.0 5.0 0.00 0.08 0.04 1018.5
20180220235050 0 5 1.0 7.0 0.00 0.08 0.04 1018.4
20180220234349 0 5 3.0 9.0 0.00 0.08 0.04 1018.3
20180220233648 0 5 2.0 9.0 0.00 0.08 0.04 1018.4
20180220232948 0 5 2.0 6.0 0.00 0.08 0.04 1018.3
20180220232246 0 4 1.0 5.0 0.00 0.08 0.04 1018.4
20180220231545 0 5 1.0 6.0 0.00 0.08 0.04 1018.2
20180220230844 0 5 2.0 6.0 0.00 0.08 0.04 1018.2
20180220230143 0 0 0.0 0.0 0.00 0.08 0.04 1018.2
20180220225442 0 0 0.0 0.0 0.00 0.08 0.04 1018.2
20180220224741 0 0 0.0 0.0 0.00 0.08 0.04 1018.1
20180220223339 0 0 0.0 0.0 0.00 0.08 0.04 1018.1